Tracking 29933 objects as of 2-Dec-2024
HD Live streaming from Space Station
objects crossing your sky now

STARLINK-31844

Track STARLINK-31844 now!
10-day predictions
STARLINK-31844 is classified as:


NORAD ID: 60583
Int'l Code: 2024-150A
Perigee: 482.0 km
Apogee: 482.7 km
Inclination: 53.2 °
Period: 94.1 minutes
Semi major axis: 6853 km
RCS: Unknown
Launch date: August 20, 2024
Source: United States (US)
Launch site: AIR FORCE EASTERN TEST RANGE (AFETR)
Your satellite tracking list
Your tracking list is empty




NASA's NSSDC Master Catalog

Two Line Element Set (TLE):
1 60583U 24150A   24336.92139944  .00000741  00000-0  37131-4 0  9994
2 60583  53.1595 296.2485 0000495  76.5070 283.5986 15.30209587 17190
Source of the keplerian elements: AFSPC